sat.trackr.live / text

‹ back to catalog

SPACEMOBILE-001

NORAD 61047 · 2024-163C

PAYLOAD ACTIVE UNKNOWN

§ Identity

Operator
Country
US
Launch date
2024-09-12
Launch site
AFETR
Launch vehicle
Mass (kg)
RCS (m²)

External: N2YO · Heavens-Above · Gunter

§ Orbital elements

Epoch: 2026-09-21T03:46:37.845408Z

Period
94.71 min
Inclination
52.9682°
Eccentricity
0.0007958
Mean motion
15.20401208 rev/d
Perigee alt
499.2 km
Apogee alt
510.1 km
Semi-major
6,882.8 km
B*
9.7029e-6
RAAN
227.8703°
Arg perigee
53.5615°
Mean anomaly
306.6112°
Rev number
11,236

§ Raw data

SPACEMOBILE-0011 61047U 24163C   26264.15738247 -.00000114  00000+0  97029-5 0  99992 61047  52.9682 227.8703 0007958  53.5615 306.6112 15.20401208112360

JSON: /api/v1/satellites/61047 · /tle

For live sub-satellite position, see the globe view (requires WebGL).

§ Visibility from observer

Set your observer location to see the next 7 days of passes ≥ 10°. The values pass through the URL so the page stays shareable.

No JS? Fill the form by hand. The geolocation button needs JavaScript.

§ Radio — SatNOGS DB

ModeDescriptionDownlinkUplink
GFSK Mode U - Transmitter 439.500 MHz
BPSK S-band telemetry 2.225 GHz

2 transmitters · refreshed weekly from db.satnogs.org